Location: Ferchesar
(52.6477°N, 12.4298°E)
Time: 16:00:20
(UTC+01:00)

Vanguard 3 - Pass Details

Date: 16 December 2021
Orbit: 508 x 3260 km, 33.3° (Epoch: 22 January)

Event Time Altitude Azimuth Distance (km) Brightness Sun altitude
Rises 01:19:11 0° 232° (SW) 5,714 - -57.5°
Reaches altitude 10° 01:22:55 10° 224° (SW) 5,048 - -57.2°
Maximum altitude 01:36:38 37° 165° (SSE) 4,100 - -56.0°
Exits shadow 01:43:29 30° 132° (SE) 4,664 10.8 -55.3°
Drops below altitude 10° 01:53:29 10° 108° (ESE) 6,168 11.7 -54.2°
Sets 01:58:39 0° 101° (ESE) 7,074 12.2 -53.7°
